Delhi, Ontario

9:29 PM EDT on March 29, 2017 (GMT -0400)
Delhi

Weather History for CXDI - October, 2013

Change the Weather History Date:

Thursday, October 10, 2013

  Actual Average Record
Temperature  
Mean Temperature 54 °F -  
Max Temperature 67 °F - - ()
Min Temperature 42 °F - - ()
Degree Days  
Heating Degree Days 10    
Growing Degree Days 4 (Base 50)    
Moisture  
Dew Point 45 °F    
Average Humidity 81    
Maximum Humidity 96    
Minimum Humidity 45    
Precipitation  
Precipitation 0.00 in - - ()
Sea Level Pressure  
Sea Level Pressure 30.20 in    
Wind  
Wind Speed - ()    
Max Wind Speed -    
Max Gust Speed -    
T = Trace of Precipitation, MM = Missing Value Source: Averaged Metar Reports

Daily Weather History Graph

Daily Weather History Graph

Search for Another Location

Airport or City:

Trip Planner

Search our weather history database for the weather conditions in past years. The results will help you decide how hot, cold, wet, or windy it might be!

Date:

Astronomy

Oct. 10, 2013 Rise Set
Actual Time 7:29 AM EDT 6:47 PM EDT
Civil Twilight 7:01 AM EDT 7:15 PM EDT
Nautical Twilight 6:28 AM EDT 7:48 PM EDT
Astronomical Twilight 5:55 AM EDT 8:21 PM EDT
Moon 1:25 PM EDT (10/10) 11:18 PM EDT (10/10)
Length of Visible Light 12h 14m
Length of Day
11h 17m
Waxing Crescent, 35% of the Moon is Illuminated
Oct 10
Waxing Crescent
Oct 11
First Quarter
Oct 18
Full
Oct 26
Last Quarter
Nov 3
New

Hourly Weather History & Observations

Time (EDT) Temp. Dew Point Humidity Pressure Visibility Wind Dir Wind Speed Gust Speed Precip Events Conditions
12:00 AM 44.8 °F 42.3 °F 91% - - North - - N/A   Unknown
1:00 AM 43.2 °F 41.4 °F 93% - - North - - N/A   Unknown
2:00 AM 44 °F 43 °F 94%  in - Calm Calm - -  
2:00 AM 44.2 °F 42.8 °F 95% - - North - - N/A   Unknown
3:00 AM 45.7 °F 44.2 °F 95% - - North - - N/A   Unknown
4:00 AM 47.1 °F 45.9 °F 95% 30.23 in - North - - N/A   Unknown
5:00 AM 44.8 °F 43.5 °F 95% 30.23 in - North - - N/A   Unknown
6:00 AM 44.6 °F 43.3 °F 95% 30.25 in - North - - N/A   Unknown
7:00 AM 44.1 °F 43.0 °F 96% 30.26 in - North - - N/A   Unknown
8:00 AM 44 °F 42 °F 92% 30.26 in - Calm Calm - -  
8:00 AM 43.5 °F 42.4 °F 96% 30.26 in - North - - N/A   Unknown
9:00 AM 44.2 °F 43.2 °F 96% 30.26 in - North - - N/A   Unknown
10:00 AM 46.8 °F 45.7 °F 96% 30.27 in - North - - N/A   Unknown
11:00 AM 50.0 °F 48.9 °F 96% 30.25 in - North - - N/A   Unknown
12:00 PM 56.1 °F 54.9 °F 96% 30.24 in - North - - N/A   Unknown
1:00 PM 62.1 °F 52.0 °F 70% 30.21 in - North - - N/A   Unknown
2:00 PM 65 °F 49 °F 45% 30.19 in - Calm Calm - -  
2:00 PM 64.8 °F 48.9 °F 56% 30.19 in - North - - N/A   Unknown
3:00 PM 65.5 °F 45.3 °F 48% 30.18 in - North - - N/A   Unknown
4:00 PM 64.6 °F 46.0 °F 51% 30.17 in - North - - N/A   Unknown
5:00 PM 64.2 °F 47.1 °F 54% 30.17 in - North - - N/A   Unknown
6:00 PM 59.5 °F 45.7 °F 60% 30.16 in - North - - N/A   Unknown
7:00 PM 53.8 °F 45.1 °F 73% 30.16 in - North - - N/A   Unknown
8:00 PM 52 °F 43 °F 63% 30.16 in - Calm Calm - -  
8:00 PM 51.6 °F 43.0 °F 72% 30.16 in - North - - N/A   Unknown
9:00 PM 50.2 °F 43.2 °F 77% 30.15 in - North - - N/A   Unknown
10:00 PM 48.9 °F 45.9 °F 89% 30.15 in - North - - N/A   Unknown
11:00 PM 47.1 °F 45.1 °F 93% 30.15 in - North - - N/A   Unknown